Location: Ripley
(48.3812°N, 115.4473°W)
Time: 05:25:36
(UTC+00:00)

O/OREOS (USA 219) - Pass Details

Date: 04 July 2022
Orbit: 621 x 646 km, 72.0° (Epoch: 22 May)

Event Time Altitude Azimuth Distance (km) Brightness Sun altitude
Rises 08:18:17 0° 324° (NW) 2,966 ? -18.4°
Reaches altitude 10° 08:20:50 10° 313° (NW) 2,053 ? -18.3°
Maximum altitude 08:24:41 27° 256° (WSW) 1,249 ? -18.2°
Enters shadow 08:25:32 25° 237° (WSW) 1,298 ? -18.2°
